Time,TemperatureF,DewpointF,PressureIn,WindDirection,WindDirectionDegrees,WindSpeedMPH,WindSpeedGustMPH,Humidity,HourlyPrecipIn,Conditions,Clouds,dailyrainin,SoftwareType,DateUTC
2013-06-06 00:01:00,67.0,66.7,29.80,SW,225,3.0,6.0,99,0.12,,,0.02,Rainwise IP-100,2013-06-06 05:01:00,
2013-06-06 00:03:00,67.0,66.7,29.80,SW,225,3.0,6.0,99,0.24,,,0.03,Rainwise IP-100,2013-06-06 05:03:00,
2013-06-06 00:06:00,67.0,66.7,29.80,West,270,3.0,5.0,99,0.42,,,0.06,Rainwise IP-100,2013-06-06 05:06:00,
2013-06-06 00:11:00,67.0,66.7,29.80,West,270,1.0,5.0,99,0.60,,,0.12,Rainwise IP-100,2013-06-06 05:11:00,
2013-06-06 00:13:00,67.0,66.7,29.80,West,270,1.0,2.0,99,0.66,,,0.14,Rainwise IP-100,2013-06-06 05:13:00,
2013-06-06 00:18:00,67.0,66.7,29.81,WNW,292,1.0,4.0,99,0.72,,,0.21,Rainwise IP-100,2013-06-06 05:18:00,
2013-06-06 00:23:00,67.0,66.7,29.81,SW,225,4.0,5.0,99,0.96,,,0.30,Rainwise IP-100,2013-06-06 05:23:00,
2013-06-06 00:28:00,67.0,66.7,29.82,SW,225,6.0,6.0,99,1.08,,,0.40,Rainwise IP-100,2013-06-06 05:28:00,
2013-06-06 00:33:00,67.0,66.7,29.82,NW,315,6.0,7.0,99,1.44,,,0.55,Rainwise IP-100,2013-06-06 05:33:00,
2013-06-06 00:38:00,67.0,66.7,29.80,South,180,5.0,7.0,99,1.20,,,0.59,Rainwise IP-100,2013-06-06 05:38:00,
2013-06-06 00:43:00,68.0,67.5,29.80,NE,45,4.0,10.0,99,0.66,,,0.66,Rainwise IP-100,2013-06-06 05:43:00,
2013-06-06 00:48:00,68.0,67.5,29.79,NE,45,6.0,12.0,99,0.72,,,0.71,Rainwise IP-100,2013-06-06 05:48:00,
2013-06-06 00:53:00,68.0,67.5,29.79,NE,45,5.0,12.0,99,0.42,,,0.72,Rainwise IP-100,2013-06-06 05:53:00,
2013-06-06 00:58:00,68.0,67.5,29.78,West,270,5.0,12.0,99,0.18,,,0.73,Rainwise IP-100,2013-06-06 05:58:00,
2013-06-06 01:03:00,68.0,67.5,29.78,NW,315,2.0,6.0,99,0.12,,,0.74,Rainwise IP-100,2013-06-06 06:03:00,
2013-06-06 01:08:00,68.0,67.5,29.78,WNW,292,0.0,7.0,99,0.18,,,0.76,Rainwise IP-100,2013-06-06 06:08:00,
2013-06-06 01:14:00,68.0,67.5,29.78,West,270,2.0,6.0,99,0.30,,,0.80,Rainwise IP-100,2013-06-06 06:14:00,
2013-06-06 01:19:00,67.0,66.7,29.79,WSW,247,0.0,6.0,99,0.42,,,0.83,Rainwise IP-100,2013-06-06 06:19:00,
2013-06-06 01:27:00,67.0,66.7,29.81,South,180,6.0,8.0,99,0.18,,,0.86,Rainwise IP-100,2013-06-06 06:27:00,
2013-06-06 01:33:00,67.0,66.7,29.81,SW,225,2.0,7.0,99,0.54,,,0.93,Rainwise IP-100,2013-06-06 06:33:00,
2013-06-06 01:47:00,67.0,66.7,29.81,SE,135,5.0,6.0,99,0.48,,,0.09,Rainwise IP-100,2013-06-06 06:47:00,
2013-06-06 01:52:00,67.0,66.7,29.80,NE,45,6.0,7.0,99,0.54,,,0.05,Rainwise IP-100,2013-06-06 06:52:00,
2013-06-06 01:58:00,67.0,66.7,29.81,SSW,202,3.0,0.0,99,0.00,,,0.00,Rainwise IP-100,2013-06-06 06:58:00,
2013-06-06 02:03:00,67.0,66.7,29.81,SSW,202,8.0,9.0,99,0.18,,,0.04,Rainwise IP-100,2013-06-06 07:03:00,
2013-06-06 02:08:00,66.0,65.5,29.80,South,180,1.0,10.0,99,0.36,,,0.07,Rainwise IP-100,2013-06-06 07:08:00,
2013-06-06 02:14:00,66.0,65.5,29.80,ESE,112,1.0,7.0,99,0.30,,,0.09,Rainwise IP-100,2013-06-06 07:14:00,
2013-06-06 02:19:00,65.0,64.5,29.77,East,90,8.0,8.0,99,0.18,,,0.10,Rainwise IP-100,2013-06-06 07:19:00,
2013-06-06 02:24:00,65.0,64.5,29.77,ENE,67,6.0,8.0,99,0.12,,,0.11,Rainwise IP-100,2013-06-06 07:24:00,
2013-06-06 02:29:00,65.0,64.5,29.76,SE,135,5.0,8.0,99,0.06,,,0.11,Rainwise IP-100,2013-06-06 07:29:00,
2013-06-06 02:34:00,65.0,64.5,29.76,WSW,247,3.0,7.0,99,0.00,,,0.11,Rainwise IP-100,2013-06-06 07:34:00,
2013-06-06 02:39:00,65.0,64.5,29.76,SW,225,6.0,7.0,99,0.00,,,0.11,Rainwise IP-100,2013-06-06 07:39:00,
2013-06-06 02:45:00,65.0,64.5,29.76,SW,225,7.0,10.0,99,0.00,,,0.11,Rainwise IP-100,2013-06-06 07:45:00,
2013-06-06 02:50:00,65.0,64.5,29.78,SW,225,6.0,10.0,99,0.06,,,0.12,Rainwise IP-100,2013-06-06 07:50:00,
2013-06-06 02:55:00,65.0,64.5,29.78,WSW,247,4.0,10.0,99,0.12,,,0.13,Rainwise IP-100,2013-06-06 07:55:00,
2013-06-06 03:00:00,65.0,64.5,29.79,SW,225,0.0,10.0,99,0.12,,,0.14,Rainwise IP-100,2013-06-06 08:00:00,
2013-06-06 03:05:00,65.0,64.5,29.79,West,270,1.0,6.0,99,0.06,,,0.14,Rainwise IP-100,2013-06-06 08:05:00,
2013-06-06 03:10:00,65.0,64.5,29.77,South,180,2.0,7.0,99,0.00,,,0.14,Rainwise IP-100,2013-06-06 08:10:00,
2013-06-06 03:15:00,65.0,64.5,29.77,SSW,202,3.0,6.0,99,0.00,,,0.14,Rainwise IP-100,2013-06-06 08:15:00,
2013-06-06 03:20:00,65.0,64.5,29.77,SSW,202,2.0,4.0,99,0.00,,,0.14,Rainwise IP-100,2013-06-06 08:20:00,
2013-06-06 03:25:00,65.0,64.5,29.77,SSW,202,1.0,4.0,99,0.00,,,0.14,Rainwise IP-100,2013-06-06 08:25:00,
2013-06-06 03:30:00,65.0,64.5,29.77,SSW,202,1.0,3.0,99,0.00,,,0.14,Rainwise IP-100,2013-06-06 08:30:00,
2013-06-06 03:35:00,65.0,64.5,29.77,South,180,1.0,3.0,99,0.00,,,0.14,Rainwise IP-100,2013-06-06 08:35:00,
2013-06-06 03:40:00,65.0,64.5,29.76,SSE,157,2.0,4.0,99,0.00,,,0.14,Rainwise IP-100,2013-06-06 08:40:00,
2013-06-06 03:45:00,65.0,64.5,29.76,East,90,1.0,3.0,99,0.00,,,0.14,Rainwise IP-100,2013-06-06 08:45:00,
2013-06-06 03:50:00,65.0,64.5,29.76,ESE,112,1.0,3.0,99,0.00,,,0.14,Rainwise IP-100,2013-06-06 08:50:00,
2013-06-06 03:55:00,65.0,64.5,29.76,SSW,202,1.0,3.0,99,0.00,,,0.14,Rainwise IP-100,2013-06-06 08:55:00,
2013-06-06 04:00:00,64.0,63.5,29.77,SE,135,1.0,4.0,98,0.00,,,0.14,Rainwise IP-100,2013-06-06 09:00:00,
2013-06-06 04:05:00,64.0,63.5,29.77,SE,135,0.0,2.0,98,0.00,,,0.14,Rainwise IP-100,2013-06-06 09:05:00,
2013-06-06 04:10:00,64.0,63.5,29.77,SE,135,1.0,2.0,98,0.00,,,0.14,Rainwise IP-100,2013-06-06 09:10:00,
2013-06-06 04:15:00,65.0,64.5,29.77,ESE,112,0.0,2.0,99,0.00,,,0.14,Rainwise IP-100,2013-06-06 09:15:00,
2013-06-06 04:20:00,64.0,63.5,29.76,NE,45,0.0,1.0,98,0.00,,,0.14,Rainwise IP-100,2013-06-06 09:20:00,
2013-06-06 04:25:00,64.0,63.5,29.76,South,180,0.0,2.0,98,0.06,,,0.15,Rainwise IP-100,2013-06-06 09:25:00,
2013-06-06 04:30:00,64.0,63.5,29.77,ESE,112,0.0,4.0,98,0.06,,,0.15,Rainwise IP-100,2013-06-06 09:30:00,
2013-06-06 04:35:00,64.0,63.5,29.77,East,90,1.0,1.0,98,0.00,,,0.15,Rainwise IP-100,2013-06-06 09:35:00,
2013-06-06 04:40:00,65.0,64.5,29.77,East,90,0.0,1.0,99,0.00,,,0.15,Rainwise IP-100,2013-06-06 09:40:00,
2013-06-06 04:45:00,65.0,64.5,29.77,East,90,0.0,0.0,99,0.00,,,0.15,Rainwise IP-100,2013-06-06 09:45:00,
2013-06-06 04:50:00,65.0,64.5,29.77,WNW,292,1.0,4.0,99,0.00,,,0.15,Rainwise IP-100,2013-06-06 09:50:00,
2013-06-06 04:55:00,65.0,64.5,29.77,WNW,292,0.0,2.0,99,0.00,,,0.15,Rainwise IP-100,2013-06-06 09:55:00,
2013-06-06 05:00:00,64.0,63.5,29.77,ESE,112,0.0,2.0,98,0.00,,,0.15,Rainwise IP-100,2013-06-06 10:00:00,
2013-06-06 05:05:00,64.0,63.5,29.77,ESE,112,0.0,0.0,98,0.00,,,0.15,Rainwise IP-100,2013-06-06 10:05:00,
2013-06-06 05:10:00,64.0,63.5,29.77,ESE,112,0.0,0.0,98,0.00,,,0.15,Rainwise IP-100,2013-06-06 10:10:00,
2013-06-06 05:15:00,65.0,64.5,29.77,ESE,112,0.0,0.0,99,0.00,,,0.15,Rainwise IP-100,2013-06-06 10:15:00,
2013-06-06 05:20:00,65.0,64.5,29.77,ESE,112,0.0,0.0,99,0.00,,,0.15,Rainwise IP-100,2013-06-06 10:20:00,
2013-06-06 05:25:00,65.0,64.5,29.77,ESE,112,0.0,1.0,99,0.00,,,0.15,Rainwise IP-100,2013-06-06 10:25:00,
2013-06-06 05:30:00,65.0,64.5,29.77,ESE,112,0.0,0.0,99,0.00,,,0.15,Rainwise IP-100,2013-06-06 10:30:00,
2013-06-06 05:35:00,65.0,64.5,29.77,ESE,112,0.0,3.0,99,0.00,,,0.15,Rainwise IP-100,2013-06-06 10:35:00,
2013-06-06 05:40:00,65.0,64.5,29.77,ENE,67,0.0,0.0,99,0.00,,,0.15,Rainwise IP-100,2013-06-06 10:40:00,
2013-06-06 05:45:00,65.0,64.5,29.77,ENE,67,0.0,0.0,99,0.00,,,0.15,Rainwise IP-100,2013-06-06 10:45:00,
2013-06-06 05:50:00,65.0,64.5,29.77,East,90,0.0,0.0,99,0.00,,,0.15,Rainwise IP-100,2013-06-06 10:50:00,
2013-06-06 05:55:00,65.0,64.5,29.77,East,90,0.0,0.0,99,0.00,,,0.15,Rainwise IP-100,2013-06-06 10:55:00,
2013-06-06 06:00:00,65.0,64.5,29.78,NNW,337,2.0,2.0,99,0.00,,,0.15,Rainwise IP-100,2013-06-06 11:00:00,
2013-06-06 06:05:00,65.0,64.5,29.78,NNW,337,0.0,2.0,99,0.00,,,0.15,Rainwise IP-100,2013-06-06 11:05:00,
2013-06-06 06:10:00,65.0,64.5,29.78,NNW,337,0.0,1.0,99,0.00,,,0.15,Rainwise IP-100,2013-06-06 11:10:00,
2013-06-06 06:15:00,65.0,64.5,29.78,West,270,0.0,0.0,99,0.00,,,0.15,Rainwise IP-100,2013-06-06 11:15:00,
2013-06-06 06:20:00,65.0,64.5,29.78,North,360,0.0,0.0,99,0.00,,,0.15,Rainwise IP-100,2013-06-06 11:20:00,
2013-06-06 06:25:00,65.0,64.5,29.78,North,360,0.0,0.0,99,0.00,,,0.15,Rainwise IP-100,2013-06-06 11:25:00,
2013-06-06 06:30:00,65.0,64.5,29.79,North,360,0.0,0.0,99,0.00,,,0.15,Rainwise IP-100,2013-06-06 11:30:00,
2013-06-06 06:35:00,65.0,64.5,29.79,NE,45,0.0,0.0,99,0.00,,,0.15,Rainwise IP-100,2013-06-06 11:35:00,
2013-06-06 06:40:00,65.0,64.5,29.79,NE,45,0.0,0.0,99,0.00,,,0.15,Rainwise IP-100,2013-06-06 11:40:00,
2013-06-06 06:45:00,65.0,64.5,29.79,NE,45,0.0,2.0,99,0.00,,,0.15,Rainwise IP-100,2013-06-06 11:45:00,
2013-06-06 06:50:00,65.0,64.5,29.78,NE,45,0.0,2.0,99,0.00,,,0.15,Rainwise IP-100,2013-06-06 11:50:00,
2013-06-06 06:55:00,65.0,64.5,29.78,NE,45,1.0,0.0,99,0.00,,,0.15,Rainwise IP-100,2013-06-06 11:55:00,
2013-06-06 07:00:00,65.0,64.5,29.78,NE,45,0.0,2.0,99,0.00,,,0.15,Rainwise IP-100,2013-06-06 12:00:00,
2013-06-06 07:05:00,66.0,65.5,29.78,NE,45,0.0,0.0,99,0.06,,,0.16,Rainwise IP-100,2013-06-06 12:05:00,
2013-06-06 07:10:00,66.0,65.5,29.79,SE,135,0.0,3.0,99,0.06,,,0.16,Rainwise IP-100,2013-06-06 12:10:00,
2013-06-06 07:15:00,66.0,65.5,29.79,SE,135,0.0,2.0,99,0.00,,,0.16,Rainwise IP-100,2013-06-06 12:15:00,
2013-06-06 07:20:00,66.0,65.5,29.79,SE,135,0.0,0.0,99,0.00,,,0.16,Rainwise IP-100,2013-06-06 12:20:00,
2013-06-06 07:25:00,66.0,65.5,29.79,West,270,0.0,1.0,99,0.00,,,0.16,Rainwise IP-100,2013-06-06 12:25:00,
2013-06-06 07:30:00,66.0,65.5,29.80,West,270,0.0,0.0,99,0.00,,,0.16,Rainwise IP-100,2013-06-06 12:30:00,
2013-06-06 07:35:00,66.0,65.5,29.80,West,270,0.0,0.0,99,0.00,,,0.16,Rainwise IP-100,2013-06-06 12:35:00,
2013-06-06 07:40:00,66.0,65.5,29.79,East,90,2.0,2.0,99,0.00,,,0.16,Rainwise IP-100,2013-06-06 12:40:00,
2013-06-06 07:45:00,66.0,65.5,29.79,ENE,67,3.0,7.0,99,0.00,,,0.16,Rainwise IP-100,2013-06-06 12:45:00,
2013-06-06 07:50:00,66.0,65.5,29.76,NE,45,3.0,5.0,99,0.00,,,0.16,Rainwise IP-100,2013-06-06 12:50:00,
2013-06-06 07:55:00,66.0,65.5,29.76,ENE,67,3.0,6.0,99,0.00,,,0.16,Rainwise IP-100,2013-06-06 12:55:00,
2013-06-06 08:00:00,66.0,65.5,29.77,NE,45,3.0,6.0,99,0.00,,,0.16,Rainwise IP-100,2013-06-06 13:00:00,
2013-06-06 08:05:00,66.0,65.5,29.77,NE,45,3.0,6.0,99,0.00,,,0.16,Rainwise IP-100,2013-06-06 13:05:00,
2013-06-06 08:10:00,66.0,65.5,29.77,NE,45,0.0,5.0,99,0.00,,,0.16,Rainwise IP-100,2013-06-06 13:10:00,
2013-06-06 08:15:00,66.0,65.5,29.77,SSE,157,0.0,2.0,99,0.00,,,0.16,Rainwise IP-100,2013-06-06 13:15:00,
2013-06-06 08:20:00,66.0,65.5,29.77,ENE,67,4.0,5.0,99,0.00,,,0.16,Rainwise IP-100,2013-06-06 13:20:00,
2013-06-06 08:25:00,66.0,65.5,29.77,NE,45,1.0,6.0,99,0.00,,,0.16,Rainwise IP-100,2013-06-06 13:25:00,
2013-06-06 08:30:00,66.0,65.5,29.78,NE,45,1.0,5.0,99,0.06,,,0.17,Rainwise IP-100,2013-06-06 13:30:00,
2013-06-06 08:35:00,67.0,66.7,29.78,NE,45,0.0,3.0,99,0.06,,,0.17,Rainwise IP-100,2013-06-06 13:35:00,
2013-06-06 08:40:00,67.0,66.7,29.79,NE,45,0.0,3.0,99,0.00,,,0.17,Rainwise IP-100,2013-06-06 13:40:00,
2013-06-06 08:45:00,67.0,66.7,29.79,ENE,67,2.0,5.0,99,0.00,,,0.17,Rainwise IP-100,2013-06-06 13:45:00,
2013-06-06 08:51:00,67.0,66.7,29.79,NE,45,6.0,6.0,99,0.00,,,0.17,Rainwise IP-100,2013-06-06 13:51:00,
2013-06-06 08:56:00,68.0,67.5,29.79,East,90,1.0,6.0,99,0.00,,,0.17,Rainwise IP-100,2013-06-06 13:56:00,
2013-06-06 09:01:00,68.0,67.5,29.79,ENE,67,3.0,5.0,99,0.00,,,0.17,Rainwise IP-100,2013-06-06 14:01:00,
2013-06-06 09:06:00,68.0,67.5,29.79,ENE,67,2.0,6.0,99,0.00,,,0.17,Rainwise IP-100,2013-06-06 14:06:00,
2013-06-06 09:11:00,68.0,67.5,29.80,East,90,4.0,5.0,99,0.00,,,0.17,Rainwise IP-100,2013-06-06 14:11:00,
2013-06-06 09:16:00,68.0,67.5,29.80,East,90,0.0,6.0,99,0.00,,,0.17,Rainwise IP-100,2013-06-06 14:16:00,
2013-06-06 09:21:00,68.0,67.5,29.79,NE,45,1.0,6.0,99,0.00,,,0.17,Rainwise IP-100,2013-06-06 14:21:00,
2013-06-06 09:26:00,69.0,68.5,29.79,ENE,67,1.0,4.0,99,0.00,,,0.17,Rainwise IP-100,2013-06-06 14:26:00,
2013-06-06 09:31:00,70.0,69.7,29.80,ESE,112,0.0,1.0,99,0.00,,,0.17,Rainwise IP-100,2013-06-06 14:31:00,
2013-06-06 09:36:00,70.0,69.7,29.80,East,90,0.0,3.0,99,0.00,,,0.17,Rainwise IP-100,2013-06-06 14:36:00,
2013-06-06 09:41:00,70.0,69.7,29.79,SSE,157,0.0,4.0,99,0.00,,,0.17,Rainwise IP-100,2013-06-06 14:41:00,
2013-06-06 09:46:00,70.0,69.7,29.79,WNW,292,2.0,4.0,99,0.00,,,0.17,Rainwise IP-100,2013-06-06 14:46:00,
2013-06-06 09:51:00,71.0,70.5,29.80,South,180,0.0,6.0,99,0.00,,,0.17,Rainwise IP-100,2013-06-06 14:51:00,
2013-06-06 09:56:00,71.0,70.5,29.80,East,90,3.0,5.0,99,0.00,,,0.17,Rainwise IP-100,2013-06-06 14:56:00,
2013-06-06 10:01:00,70.0,69.7,29.80,NE,45,2.0,6.0,99,0.00,,,0.17,Rainwise IP-100,2013-06-06 15:01:00,
2013-06-06 10:06:00,72.0,71.7,29.80,ESE,112,1.0,6.0,99,0.00,,,0.17,Rainwise IP-100,2013-06-06 15:06:00,
2013-06-06 10:11:00,72.0,71.7,29.79,NE,45,1.0,6.0,99,0.00,,,0.17,Rainwise IP-100,2013-06-06 15:11:00,
2013-06-06 10:16:00,73.0,71.0,29.79,NE,45,4.0,7.0,93,0.00,,,0.17,Rainwise IP-100,2013-06-06 15:16:00,
2013-06-06 10:21:00,74.0,71.0,29.78,SE,135,2.0,6.0,89,0.00,,,0.17,Rainwise IP-100,2013-06-06 15:21:00,
2013-06-06 10:26:00,75.0,71.7,29.78,West,270,0.0,6.0,89,0.00,,,0.17,Rainwise IP-100,2013-06-06 15:26:00,
2013-06-06 10:31:00,76.0,71.3,29.79,ENE,67,1.0,6.0,86,0.00,,,0.17,Rainwise IP-100,2013-06-06 15:31:00,
2013-06-06 10:36:00,76.0,68.5,29.79,North,360,2.0,9.0,78,0.00,,,0.17,Rainwise IP-100,2013-06-06 15:36:00,
2013-06-06 10:41:00,76.0,69.3,29.78,North,360,1.0,6.0,80,0.00,,,0.17,Rainwise IP-100,2013-06-06 15:41:00,
2013-06-06 10:46:00,76.0,67.5,29.78,ENE,67,4.0,5.0,76,0.00,,,0.17,Rainwise IP-100,2013-06-06 15:46:00,
2013-06-06 10:51:00,77.0,69.7,29.77,ENE,67,4.0,6.0,78,0.00,,,0.17,Rainwise IP-100,2013-06-06 15:51:00,
2013-06-06 10:56:00,76.0,69.0,29.77,East,90,2.0,4.0,79,0.00,,,0.17,Rainwise IP-100,2013-06-06 15:56:00,
2013-06-06 11:01:00,76.0,68.0,29.78,NE,45,4.0,6.0,77,0.00,,,0.17,Rainwise IP-100,2013-06-06 16:01:00,
2013-06-06 11:06:00,77.0,69.0,29.78,East,90,6.0,6.0,76,0.00,,,0.17,Rainwise IP-100,2013-06-06 16:06:00,
2013-06-06 11:11:00,78.0,69.7,29.77,NE,45,3.0,6.0,75,0.00,,,0.17,Rainwise IP-100,2013-06-06 16:11:00,
2013-06-06 11:16:00,79.0,68.5,29.77,North,360,7.0,7.0,70,0.00,,,0.17,Rainwise IP-100,2013-06-06 16:16:00,
2013-06-06 11:21:00,79.0,68.5,29.76,NE,45,3.0,7.0,70,0.00,,,0.17,Rainwise IP-100,2013-06-06 16:21:00,
2013-06-06 11:26:00,79.0,68.0,29.76,NNE,22,2.0,7.0,69,0.00,,,0.17,Rainwise IP-100,2013-06-06 16:26:00,
2013-06-06 11:31:00,80.0,69.0,29.76,ESE,112,0.0,6.0,69,0.00,,,0.17,Rainwise IP-100,2013-06-06 16:31:00,
2013-06-06 11:36:00,80.0,68.0,29.76,WNW,292,2.0,9.0,67,0.00,,,0.17,Rainwise IP-100,2013-06-06 16:36:00,
2013-06-06 11:41:00,79.0,67.0,29.76,North,360,4.0,6.0,67,0.00,,,0.17,Rainwise IP-100,2013-06-06 16:41:00,
2013-06-06 11:46:00,79.0,68.0,29.76,East,90,0.0,5.0,69,0.00,,,0.17,Rainwise IP-100,2013-06-06 16:46:00,
2013-06-06 11:51:00,79.0,67.5,29.76,East,90,1.0,7.0,68,0.00,,,0.17,Rainwise IP-100,2013-06-06 16:51:00,
2013-06-06 11:56:00,81.0,69.3,29.76,East,90,4.0,5.0,67,0.00,,,0.17,Rainwise IP-100,2013-06-06 16:56:00,
2013-06-06 12:01:00,81.0,69.0,29.75,NNE,22,1.0,6.0,66,0.00,,,0.17,Rainwise IP-100,2013-06-06 17:01:00,
2013-06-06 12:06:00,80.0,64.5,29.75,NE,45,7.0,8.0,59,0.00,,,0.17,Rainwise IP-100,2013-06-06 17:06:00,
2013-06-06 12:11:00,80.0,65.5,29.76,NE,45,2.0,7.0,61,0.00,,,0.17,Rainwise IP-100,2013-06-06 17:11:00,
2013-06-06 12:16:00,81.0,67.0,29.76,NW,315,0.0,6.0,63,0.00,,,0.17,Rainwise IP-100,2013-06-06 17:16:00,
2013-06-06 12:21:00,80.0,66.0,29.77,East,90,3.0,7.0,62,0.00,,,0.17,Rainwise IP-100,2013-06-06 17:21:00,
2013-06-06 12:26:00,80.0,64.5,29.77,North,360,3.0,10.0,59,0.00,,,0.17,Rainwise IP-100,2013-06-06 17:26:00,
2013-06-06 12:31:00,80.0,66.0,29.77,West,270,2.0,11.0,62,0.00,,,0.17,Rainwise IP-100,2013-06-06 17:31:00,
2013-06-06 12:36:00,80.0,66.7,29.77,NNE,22,1.0,7.0,64,0.00,,,0.17,Rainwise IP-100,2013-06-06 17:36:00,
2013-06-06 12:41:00,80.0,66.7,29.77,SW,225,1.0,7.0,64,0.00,,,0.17,Rainwise IP-100,2013-06-06 17:41:00,
2013-06-06 12:46:00,81.0,66.0,29.77,SE,135,0.0,7.0,60,0.00,,,0.17,Rainwise IP-100,2013-06-06 17:46:00,
2013-06-06 12:51:00,81.0,66.0,29.76,ENE,67,5.0,6.0,60,0.00,,,0.17,Rainwise IP-100,2013-06-06 17:51:00,
2013-06-06 12:56:00,80.0,65.5,29.76,ENE,67,5.0,8.0,61,0.00,,,0.17,Rainwise IP-100,2013-06-06 17:56:00,
2013-06-06 13:01:00,80.0,66.0,29.77,East,90,6.0,9.0,62,0.00,,,0.17,Rainwise IP-100,2013-06-06 18:01:00,
2013-06-06 13:06:00,80.0,66.0,29.77,NE,45,6.0,10.0,62,0.00,,,0.17,Rainwise IP-100,2013-06-06 18:06:00,
2013-06-06 13:11:00,80.0,65.0,29.77,NE,45,6.0,10.0,60,0.00,,,0.17,Rainwise IP-100,2013-06-06 18:11:00,
2013-06-06 13:16:00,80.0,65.5,29.77,East,90,1.0,9.0,61,0.00,,,0.17,Rainwise IP-100,2013-06-06 18:16:00,
2013-06-06 13:21:00,80.0,63.0,29.76,NE,45,6.0,8.0,56,0.00,,,0.17,Rainwise IP-100,2013-06-06 18:21:00,
2013-06-06 13:26:00,80.0,66.3,29.76,NE,45,2.0,6.0,63,0.00,,,0.17,Rainwise IP-100,2013-06-06 18:26:00,
2013-06-06 13:31:00,81.0,66.7,29.77,South,180,2.0,6.0,62,0.00,,,0.17,Rainwise IP-100,2013-06-06 18:31:00,
2013-06-06 13:36:00,82.0,67.0,29.77,East,90,1.0,2.0,61,0.00,,,0.17,Rainwise IP-100,2013-06-06 18:36:00,
2013-06-06 13:41:00,83.0,65.0,29.76,ENE,67,2.0,6.0,54,0.00,,,0.17,Rainwise IP-100,2013-06-06 18:41:00,
2013-06-06 13:46:00,83.0,65.0,29.76,ENE,67,0.0,6.0,54,0.00,,,0.17,Rainwise IP-100,2013-06-06 18:46:00,
2013-06-06 13:51:00,84.0,67.0,29.76,North,360,0.0,4.0,57,0.00,,,0.17,Rainwise IP-100,2013-06-06 18:51:00,
2013-06-06 13:56:00,84.0,66.3,29.76,NE,45,1.0,3.0,55,0.00,,,0.17,Rainwise IP-100,2013-06-06 18:56:00,
2013-06-06 14:01:00,84.0,64.5,29.75,WSW,247,2.0,6.0,52,0.00,,,0.17,Rainwise IP-100,2013-06-06 19:01:00,
2013-06-06 14:06:00,84.0,64.0,29.75,NW,315,0.0,5.0,51,0.00,,,0.17,Rainwise IP-100,2013-06-06 19:06:00,
2013-06-06 14:11:00,84.0,66.3,29.75,NE,45,0.0,4.0,55,0.00,,,0.17,Rainwise IP-100,2013-06-06 19:11:00,
2013-06-06 14:16:00,83.0,66.0,29.75,West,270,2.0,4.0,56,0.00,,,0.17,Rainwise IP-100,2013-06-06 19:16:00,
2013-06-06 14:21:00,83.0,66.0,29.76,WSW,247,0.0,5.0,56,0.00,,,0.17,Rainwise IP-100,2013-06-06 19:21:00,
2013-06-06 14:26:00,83.0,66.0,29.76,NNE,22,0.0,3.0,56,0.00,,,0.17,Rainwise IP-100,2013-06-06 19:26:00,
2013-06-06 14:31:00,83.0,66.7,29.76,NNE,22,0.0,3.0,58,0.00,,,0.17,Rainwise IP-100,2013-06-06 19:31:00,
2013-06-06 14:36:00,84.0,66.7,29.76,WNW,292,1.0,4.0,56,0.00,,,0.17,Rainwise IP-100,2013-06-06 19:36:00,
2013-06-06 14:37:00,84.0,64.5,29.76,WNW,292,0.0,4.0,52,0.00,,,0.17,Rainwise IP-100,2013-06-06 19:37:00,
2013-06-06 14:42:00,84.0,66.3,29.75,West,270,0.0,1.0,55,0.00,,,0.17,Rainwise IP-100,2013-06-06 19:42:00,
2013-06-06 14:47:00,84.0,65.5,29.75,West,270,0.0,3.0,53,0.00,,,0.17,Rainwise IP-100,2013-06-06 19:47:00,
2013-06-06 14:52:00,84.0,66.3,29.75,NNE,22,2.0,2.0,55,0.72,,,0.29,Rainwise IP-100,2013-06-06 19:52:00,
2013-06-06 14:57:00,84.0,66.3,29.75,ESE,112,0.0,5.0,55,0.72,,,0.29,Rainwise IP-100,2013-06-06 19:57:00,
2013-06-06 15:02:00,84.0,65.5,29.75,West,270,1.0,5.0,53,0.00,,,0.29,Rainwise IP-100,2013-06-06 20:02:00,
2013-06-06 15:07:00,81.0,65.0,29.75,WNW,292,5.0,6.0,58,0.00,,,0.29,Rainwise IP-100,2013-06-06 20:07:00,
2013-06-06 15:12:00,83.0,64.0,29.76,North,360,4.0,6.0,53,0.00,,,0.29,Rainwise IP-100,2013-06-06 20:12:00,
2013-06-06 15:17:00,83.0,66.0,29.76,NW,315,0.0,5.0,56,0.00,,,0.29,Rainwise IP-100,2013-06-06 20:17:00,
2013-06-06 15:22:00,83.0,65.0,29.75,NW,315,0.0,1.0,54,0.00,,,0.29,Rainwise IP-100,2013-06-06 20:22:00,
2013-06-06 15:27:00,83.0,65.5,29.75,WNW,292,0.0,2.0,55,0.00,,,0.29,Rainwise IP-100,2013-06-06 20:27:00,
2013-06-06 15:32:00,83.0,66.3,29.75,WNW,292,0.0,5.0,57,0.00,,,0.29,Rainwise IP-100,2013-06-06 20:32:00,
2013-06-06 15:37:00,84.0,66.3,29.75,SSE,157,1.0,5.0,55,0.00,,,0.29,Rainwise IP-100,2013-06-06 20:37:00,
2013-06-06 15:42:00,84.0,66.3,29.75,WSW,247,2.0,6.0,55,0.00,,,0.29,Rainwise IP-100,2013-06-06 20:42:00,
2013-06-06 15:47:00,83.0,66.7,29.75,SW,225,2.0,6.0,58,0.00,,,0.29,Rainwise IP-100,2013-06-06 20:47:00,
2013-06-06 15:52:00,82.0,65.0,29.75,West,270,2.0,4.0,56,0.00,,,0.29,Rainwise IP-100,2013-06-06 20:52:00,
2013-06-06 15:57:00,82.0,66.3,29.75,West,270,0.0,5.0,59,0.00,,,0.29,Rainwise IP-100,2013-06-06 20:57:00,
2013-06-06 16:02:00,82.0,65.5,29.75,West,270,0.0,2.0,57,0.00,,,0.29,Rainwise IP-100,2013-06-06 21:02:00,
2013-06-06 16:07:00,82.0,67.0,29.75,West,270,0.0,2.0,61,0.00,,,0.29,Rainwise IP-100,2013-06-06 21:07:00,
2013-06-06 16:12:00,82.0,65.0,29.75,West,270,0.0,2.0,56,0.00,,,0.29,Rainwise IP-100,2013-06-06 21:12:00,
2013-06-06 16:17:00,83.0,65.0,29.75,East,90,0.0,0.0,54,0.00,,,0.29,Rainwise IP-100,2013-06-06 21:17:00,
2013-06-06 16:22:00,84.0,64.5,29.73,West,270,1.0,5.0,52,0.00,,,0.29,Rainwise IP-100,2013-06-06 21:22:00,
2013-06-06 16:27:00,83.0,66.7,29.73,West,270,1.0,4.0,58,0.00,,,0.29,Rainwise IP-100,2013-06-06 21:27:00,
2013-06-06 16:32:00,83.0,67.0,29.73,North,360,0.0,2.0,59,0.00,,,0.29,Rainwise IP-100,2013-06-06 21:32:00,
2013-06-06 16:37:00,84.0,67.0,29.73,North,360,0.0,1.0,57,0.00,,,0.29,Rainwise IP-100,2013-06-06 21:37:00,
2013-06-06 16:42:00,85.0,67.5,29.72,East,90,0.0,2.0,56,0.00,,,0.29,Rainwise IP-100,2013-06-06 21:42:00,
2013-06-06 16:47:00,85.0,68.0,29.72,East,90,0.0,0.0,57,0.00,,,0.29,Rainwise IP-100,2013-06-06 21:47:00,
2013-06-06 16:52:00,84.0,67.0,29.72,SW,225,0.0,5.0,57,0.00,,,0.29,Rainwise IP-100,2013-06-06 21:52:00,
2013-06-06 16:57:00,82.0,65.0,29.72,West,270,5.0,7.0,56,0.00,,,0.29,Rainwise IP-100,2013-06-06 21:57:00,
2013-06-06 17:02:00,83.0,67.5,29.73,WNW,292,0.0,6.0,60,0.00,,,0.29,Rainwise IP-100,2013-06-06 22:02:00,
2013-06-06 17:07:00,81.0,65.5,29.73,West,270,6.0,8.0,59,0.00,,,0.29,Rainwise IP-100,2013-06-06 22:07:00,
2013-06-06 17:12:00,83.0,66.7,29.74,WSW,247,0.0,6.0,58,0.00,,,0.29,Rainwise IP-100,2013-06-06 22:12:00,
2013-06-06 17:17:00,84.0,66.7,29.74,WSW,247,0.0,4.0,56,0.00,,,0.29,Rainwise IP-100,2013-06-06 22:17:00,
2013-06-06 17:22:00,82.0,64.5,29.73,West,270,3.0,6.0,55,0.00,,,0.29,Rainwise IP-100,2013-06-06 22:22:00,
2013-06-06 17:27:00,83.0,66.0,29.73,West,270,0.0,6.0,56,0.00,,,0.29,Rainwise IP-100,2013-06-06 22:27:00,
2013-06-06 17:32:00,84.0,66.3,29.71,WNW,292,0.0,4.0,55,0.00,,,0.29,Rainwise IP-100,2013-06-06 22:32:00,
2013-06-06 17:37:00,84.0,64.5,29.71,NW,315,1.0,6.0,52,0.00,,,0.29,Rainwise IP-100,2013-06-06 22:37:00,
2013-06-06 17:42:00,84.0,65.5,29.71,North,360,1.0,5.0,53,0.00,,,0.29,Rainwise IP-100,2013-06-06 22:42:00,
2013-06-06 17:47:00,84.0,65.5,29.71,NE,45,1.0,5.0,53,0.00,,,0.29,Rainwise IP-100,2013-06-06 22:47:00,
2013-06-06 17:52:00,84.0,65.5,29.71,NE,45,0.0,3.0,53,0.00,,,0.29,Rainwise IP-100,2013-06-06 22:52:00,
2013-06-06 17:57:00,83.0,66.7,29.71,North,360,0.0,0.0,58,0.00,,,0.29,Rainwise IP-100,2013-06-06 22:57:00,
2013-06-06 18:02:00,83.0,66.3,29.72,North,360,0.0,1.0,57,0.00,,,0.29,Rainwise IP-100,2013-06-06 23:02:00,
2013-06-06 18:07:00,83.0,65.0,29.72,East,90,0.0,3.0,54,0.00,,,0.29,Rainwise IP-100,2013-06-06 23:07:00,
2013-06-06 18:12:00,83.0,66.3,29.71,NW,315,0.0,4.0,57,0.00,,,0.29,Rainwise IP-100,2013-06-06 23:12:00,
2013-06-06 18:17:00,83.0,66.0,29.71,West,270,0.0,1.0,56,0.00,,,0.29,Rainwise IP-100,2013-06-06 23:17:00,
2013-06-06 18:22:00,83.0,66.0,29.71,West,270,2.0,3.0,56,0.00,,,0.29,Rainwise IP-100,2013-06-06 23:22:00,
2013-06-06 18:27:00,82.0,66.3,29.71,West,270,0.0,3.0,59,0.00,,,0.29,Rainwise IP-100,2013-06-06 23:27:00,
2013-06-06 18:32:00,81.0,65.5,29.71,ENE,67,0.0,6.0,59,0.00,,,0.29,Rainwise IP-100,2013-06-06 23:32:00,
2013-06-06 18:37:00,81.0,66.0,29.71,North,360,0.0,0.0,60,0.00,,,0.29,Rainwise IP-100,2013-06-06 23:37:00,
2013-06-06 18:42:00,80.0,66.0,29.72,SW,225,0.0,6.0,62,0.00,,,0.29,Rainwise IP-100,2013-06-06 23:42:00,
2013-06-06 18:47:00,80.0,66.3,29.72,WSW,247,1.0,5.0,63,0.00,,,0.29,Rainwise IP-100,2013-06-06 23:47:00,
2013-06-06 18:52:00,79.0,65.0,29.72,NW,315,2.0,4.0,62,0.00,,,0.29,Rainwise IP-100,2013-06-06 23:52:00,
2013-06-06 18:57:00,79.0,65.0,29.72,NW,315,0.0,3.0,62,0.00,,,0.29,Rainwise IP-100,2013-06-06 23:57:00,
2013-06-06 19:02:00,79.0,65.5,29.72,NW,315,0.0,2.0,63,0.00,,,0.29,Rainwise IP-100,2013-06-07 00:02:00,
2013-06-06 19:07:00,78.0,66.0,29.72,West,270,2.0,2.0,66,0.00,,,0.29,Rainwise IP-100,2013-06-07 00:07:00,
2013-06-06 19:12:00,77.0,65.0,29.73,West,270,0.0,2.0,66,0.00,,,0.29,Rainwise IP-100,2013-06-07 00:12:00,
2013-06-06 19:17:00,76.0,65.0,29.73,West,270,1.0,4.0,69,0.00,,,0.29,Rainwise IP-100,2013-06-07 00:17:00,
2013-06-06 19:22:00,76.0,65.0,29.74,West,270,0.0,4.0,69,0.00,,,0.29,Rainwise IP-100,2013-06-07 00:22:00,
2013-06-06 19:27:00,75.0,65.0,29.74,West,270,1.0,1.0,70,0.00,,,0.29,Rainwise IP-100,2013-06-07 00:27:00,
2013-06-06 19:32:00,75.0,64.5,29.74,West,270,0.0,3.0,69,0.00,,,0.29,Rainwise IP-100,2013-06-07 00:32:00,
2013-06-06 19:37:00,75.0,65.0,29.74,West,270,0.0,0.0,70,0.00,,,0.29,Rainwise IP-100,2013-06-07 00:37:00,
2013-06-06 19:42:00,75.0,65.0,29.74,NNE,22,0.0,0.0,71,0.00,,,0.29,Rainwise IP-100,2013-06-07 00:42:00,
2013-06-06 19:47:00,74.0,65.0,29.74,NNE,22,0.0,0.0,73,0.00,,,0.29,Rainwise IP-100,2013-06-07 00:47:00,
2013-06-06 19:52:00,74.0,64.5,29.75,NNE,22,0.0,0.0,72,0.00,,,0.29,Rainwise IP-100,2013-06-07 00:52:00,
2013-06-06 19:57:00,74.0,65.5,29.75,NNE,22,0.0,0.0,74,0.00,,,0.29,Rainwise IP-100,2013-06-07 00:57:00,
2013-06-06 20:02:00,73.0,66.3,29.75,NNE,22,0.0,0.0,79,0.00,,,0.29,Rainwise IP-100,2013-06-07 01:02:00,
2013-06-06 20:07:00,73.0,66.7,29.75,NNE,22,0.0,0.0,80,0.00,,,0.29,Rainwise IP-100,2013-06-07 01:07:00,
2013-06-06 20:12:00,73.0,66.7,29.75,NNE,22,0.0,0.0,80,0.00,,,0.29,Rainwise IP-100,2013-06-07 01:12:00,
2013-06-06 20:17:00,72.0,65.5,29.75,NNE,22,0.0,0.0,80,0.00,,,0.29,Rainwise IP-100,2013-06-07 01:17:00,
2013-06-06 20:22:00,72.0,66.7,29.75,NNE,22,0.0,0.0,83,0.00,,,0.29,Rainwise IP-100,2013-06-07 01:22:00,
2013-06-06 20:27:00,71.0,66.0,29.75,NNE,22,0.0,0.0,84,0.00,,,0.29,Rainwise IP-100,2013-06-07 01:27:00,
2013-06-06 20:32:00,71.0,66.3,29.75,NNE,22,0.0,0.0,85,0.00,,,0.29,Rainwise IP-100,2013-06-07 01:32:00,
2013-06-06 20:37:00,71.0,66.3,29.75,NNE,22,0.0,0.0,86,0.00,,,0.29,Rainwise IP-100,2013-06-07 01:37:00,
2013-06-06 20:42:00,71.0,67.0,29.75,NNE,22,0.0,0.0,88,0.00,,,0.29,Rainwise IP-100,2013-06-07 01:42:00,
2013-06-06 20:47:00,70.0,66.3,29.75,NNE,22,0.0,0.0,88,0.00,,,0.29,Rainwise IP-100,2013-06-07 01:47:00,
2013-06-06 20:52:00,70.0,66.0,29.75,NNE,22,0.0,0.0,87,0.00,,,0.29,Rainwise IP-100,2013-06-07 01:52:00,
2013-06-06 20:57:00,70.0,66.7,29.75,NNE,22,0.0,0.0,89,0.00,,,0.29,Rainwise IP-100,2013-06-07 01:57:00,
2013-06-06 21:02:00,70.0,66.7,29.75,NNE,22,0.0,0.0,89,0.00,,,0.29,Rainwise IP-100,2013-06-07 02:02:00,
2013-06-06 21:07:00,70.0,67.0,29.75,NNE,22,0.0,0.0,91,0.00,,,0.29,Rainwise IP-100,2013-06-07 02:07:00,
2013-06-06 21:12:00,70.0,67.5,29.75,NNE,22,0.0,0.0,92,0.00,,,0.29,Rainwise IP-100,2013-06-07 02:12:00,
2013-06-06 21:17:00,70.0,68.0,29.75,NNE,22,0.0,0.0,93,0.00,,,0.29,Rainwise IP-100,2013-06-07 02:17:00,
2013-06-06 21:22:00,69.0,66.3,29.75,NNE,22,0.0,0.0,92,0.00,,,0.29,Rainwise IP-100,2013-06-07 02:22:00,
2013-06-06 21:28:00,69.0,65.0,29.75,NNE,22,0.0,0.0,88,0.00,,,0.29,Rainwise IP-100,2013-06-07 02:28:00,
2013-06-06 21:33:00,69.0,65.5,29.76,NNE,22,0.0,0.0,89,0.00,,,0.29,Rainwise IP-100,2013-06-07 02:33:00,
2013-06-06 21:38:00,70.0,68.0,29.76,NNE,22,0.0,0.0,93,0.00,,,0.29,Rainwise IP-100,2013-06-07 02:38:00,
2013-06-06 21:43:00,70.0,68.0,29.76,NNE,22,0.0,0.0,93,0.00,,,0.29,Rainwise IP-100,2013-06-07 02:43:00,
2013-06-06 21:48:00,70.0,68.5,29.76,NNE,22,0.0,3.0,94,0.00,,,0.29,Rainwise IP-100,2013-06-07 02:48:00,
2013-06-06 21:53:00,69.0,67.0,29.76,NNE,22,0.0,3.0,94,0.00,,,0.29,Rainwise IP-100,2013-06-07 02:53:00,
2013-06-06 21:58:00,69.0,67.0,29.76,NNE,22,0.0,0.0,95,0.00,,,0.29,Rainwise IP-100,2013-06-07 02:58:00,
2013-06-06 22:03:00,69.0,67.0,29.77,NNE,22,0.0,0.0,95,0.00,,,0.29,Rainwise IP-100,2013-06-07 03:03:00,
2013-06-06 22:08:00,69.0,67.5,29.77,NNE,22,0.0,0.0,96,0.00,,,0.29,Rainwise IP-100,2013-06-07 03:08:00,
2013-06-06 22:13:00,68.0,66.7,29.77,SE,135,0.0,0.0,96,0.00,,,0.29,Rainwise IP-100,2013-06-07 03:13:00,
2013-06-06 22:18:00,68.0,66.7,29.77,ESE,112,0.0,3.0,96,0.00,,,0.29,Rainwise IP-100,2013-06-07 03:18:00,
2013-06-06 22:23:00,68.0,66.7,29.77,ESE,112,0.0,1.0,96,0.00,,,0.29,Rainwise IP-100,2013-06-07 03:23:00,
2013-06-06 22:28:00,68.0,66.7,29.77,ESE,112,0.0,0.0,96,0.00,,,0.29,Rainwise IP-100,2013-06-07 03:28:00,
2013-06-06 22:33:00,68.0,66.7,29.77,ESE,112,0.0,2.0,96,0.00,,,0.29,Rainwise IP-100,2013-06-07 03:33:00,
2013-06-06 22:38:00,68.0,67.0,29.77,ESE,112,0.0,0.0,97,0.00,,,0.29,Rainwise IP-100,2013-06-07 03:38:00,
2013-06-06 22:43:00,68.0,66.7,29.77,ESE,112,0.0,0.0,96,0.00,,,0.29,Rainwise IP-100,2013-06-07 03:43:00,
2013-06-06 22:48:00,68.0,66.7,29.77,ESE,112,0.0,2.0,96,0.00,,,0.29,Rainwise IP-100,2013-06-07 03:48:00,
2013-06-06 22:53:00,68.0,67.0,29.77,ESE,112,0.0,3.0,97,0.00,,,0.29,Rainwise IP-100,2013-06-07 03:53:00,
2013-06-06 22:58:00,68.0,66.7,29.77,SE,135,1.0,4.0,96,0.00,,,0.29,Rainwise IP-100,2013-06-07 03:58:00,
2013-06-06 23:01:00,68.0,67.0,29.77,SE,135,2.0,4.0,97,0.00,,,0.29,Rainwise IP-100,2013-06-07 04:01:00,
2013-06-06 23:06:00,68.0,67.0,29.77,SE,135,0.0,4.0,97,0.00,,,0.29,Rainwise IP-100,2013-06-07 04:06:00,
2013-06-06 23:11:00,68.0,67.0,29.77,SE,135,0.0,3.0,97,0.00,,,0.29,Rainwise IP-100,2013-06-07 04:11:00,
2013-06-06 23:16:00,68.0,66.7,29.77,NE,45,0.0,7.0,95,0.00,,,0.29,Rainwise IP-100,2013-06-07 04:16:00,
2013-06-06 23:21:00,68.0,66.0,29.77,WNW,292,0.0,6.0,93,0.00,,,0.29,Rainwise IP-100,2013-06-07 04:21:00,
2013-06-06 23:26:00,68.0,65.0,29.77,NE,45,0.0,6.0,90,0.00,,,0.29,Rainwise IP-100,2013-06-07 04:26:00,
2013-06-06 23:31:00,69.0,65.0,29.76,NE,45,2.0,7.0,88,0.00,,,0.29,Rainwise IP-100,2013-06-07 04:31:00,
2013-06-06 23:36:00,69.0,64.5,29.76,East,90,2.0,7.0,86,0.00,,,0.29,Rainwise IP-100,2013-06-07 04:36:00,
2013-06-06 23:41:00,69.0,64.0,29.77,East,90,2.0,6.0,85,0.00,,,0.29,Rainwise IP-100,2013-06-07 04:41:00,
2013-06-06 23:46:00,69.0,64.0,29.77,ESE,112,1.0,4.0,85,0.00,,,0.29,Rainwise IP-100,2013-06-07 04:46:00,
2013-06-06 23:51:00,69.0,64.0,29.77,NE,45,0.0,7.0,85,0.00,,,0.29,Rainwise IP-100,2013-06-07 04:51:00,
2013-06-06 23:56:00,69.0,64.0,29.77,North,360,4.0,9.0,84,0.00,,,0.29,Rainwise IP-100,2013-06-07 04:56:00,